Showing default

OPS 9345 (IDSCS 23), 3288

Orbit data source: Space-Track

OPS 9345 (IDSCS 23), 3288 is a payload satellite owned by SAMSO (US) in GEO that was launched on Thu, 13 Jun 1968 UTC via a TITAN IIIC launch vehicle from the Air Force Eastern Test Range (AFETR). Payload-class satellites include a variety of spacecraft equipped with specific instruments for various scientific and technological missions. These include communications satellites like Starlink; space stations such as the ISS; scientific satellites like the Hubble; Earth observation satellites from companies like Planet Labs, Umbra, and HawkEye 360; GPS; miniature CubeSats for education and research; and military/defense satellites.

Loading next visibility...
Identifier
3288, 1968-050E
Orbit
GEO
Country
Flag of USUS
Related business
Manufacturer
Philco-Ford
Mission
Non-operational spacecraft
Bus & Motor
IDCSP, Unknown motor
Mass
45 kg wet, 45 kg dry
Launch date (UTC)
1968-06-13 (58 years ago)
Launch vehicle
TITAN IIIC
Launch site
Air Force Eastern Test Range (AFETR)
Object type
Payload
Rocket body
Debris
Shape & HBR
Unknown
Radar Cross Section
Small (<0.1 m²)

Expand to show TLE details & history
Last TLE update: 19 hours ago

TLE from 19 hours ago
0 OPS 9345 (IDSCS 23)
1 03288U 68050E   26111.41390355 -.00000084  00000-0  00000-0 0  9994
2 03288   6.9882  53.3295 0033700 142.7556   4.9714  1.07478379138638
Epoch: 2026-04-21T09:56Z
TLE epoch observation values (Epoch: 2026-04-21T09:56:01.266Z)
Latitude
3.70905°
Longitude
-157.20773°
Altitude
33,743.507 km
Speed
3.157 km/s
True Right ascension
13h 25m 09s
True Declination
3° 42' 18"
Sunlit
Object was in daylight at epoch
Visualization orbit readout
Latitude
Unknown
Longitude
Unknown
Altitude
Unknown
Speed
Unknown
Apparent Right ascension
Unknown
Apparent Declination
Unknown
Sunlit
N/A
Visualization observer readout
Local Sidereal Time
12:01:53
Azimuth
Unknown
Elevation
Unknown
Doppler factor
Unknown
Orbital elements
Apogee altitude
34,016.839 km
Perigee altitude
33,745.491 km
Semi-major axis
40,259.302 km
Eccentricity
0.00337
Inclination
6.9882°
RAAN
53.3295°
Arg. of periapsis
142.7556°
True anomaly
5.00501°
Mean anomaly
4.9714°
Eccentric anomaly
4.98819°
Mean motion
0.26869 °/min
Orbital period
1,339.86 mins
BSTAR
0
Loading maneuver chart data...
Computing Atmospheric mass density...
Loading historical data...
Loading historical data...
Loading historical data...
Loading historical data...
Loading historical data...
Loading historical data...
Loading historical data...

Documentation

Showing up to 5 results
|